Latest Coastal Weather Observations for Kingfish B

IDV60701

Issued at 3:32 am EST Thursday 29 June 2017 (issued every 10 minutes, with the page automatically refreshed every 10 minutes)

About coastal observations | Map of coastal stations | Coastal observations for VIC | Marine services | Other Formats
Station Details ID: 400139 Name: KINGFISH B (PLATFORM) Lat: -38.60 Lon: 148.19 Height: 31.4 m
Data from the previous 72 hours. | See also: Recent months for locations in Victoria
Date/Time
EST
Temp
°C
Wind Pressure Rain since
9am
mm
Weather Cloud Vis
km
Sea
Height
m
Swell
Dir  Spd
kts
Gust
kts
hPa Trend Height
m
Period
s
Dir
29/02:20am 13.0 W 15 18 1019.4 - - - - - - - - -
29/02:10am 13.0 W 15 18 1019.6 - - - - - - - - -
29/02:00am 12.9 W 14 17 1019.7 - - - - - - - - -
29/01:50am 13.0 W 15 19 1019.8 - - - - - - - - -
29/01:40am 13.0 W 14 17 1019.9 - - - - - - - - -
29/01:30am 13.1 W 14 16 1020.0 - - - - - - - - -
29/01:20am 13.2 W 13 16 1020.0 - - - - - - - - -
29/01:10am 13.1 WSW 14 17 1019.9 - - - - - - - - -
29/01:00am 13.1 WSW 14 17 1019.9 - - - - - - - - -
29/12:50am 13.2 WSW 12 15 1019.9 - - - - - - - - -
29/12:40am 13.2 WSW 14 16 1020.0 - - - - - - - - -
29/12:30am 13.3 WSW 12 15 1020.1 - - - - - - - - -
29/12:20am 13.2 WSW 12 16 1020.2 - - - - - - - - -
29/12:10am 13.2 WSW 14 17 1020.2 - - - - - - - - -
29/12:00am 13.3 WSW 13 17 1020.2 - - - - - - - - -
 
Date/Time
EST
Temp
°C
Wind Pressure Rain since
9am
mm
Weather Cloud Vis
km
Sea
Height
m
Swell
Dir  Spd
kts
Gust
kts
hPa Trend Height
m
Period
s
Dir
28/11:50pm 13.2 WSW 14 16 1020.2 - - - - - - - - -
28/11:40pm 13.2 WSW 14 16 1020.3 - - - - - - - - -
28/11:20pm 13.2 WSW 13 16 1020.4 - - - - - - - - -
28/11:10pm 13.2 WSW 14 16 1020.5 - - - - - - - - -
28/11:00pm 13.3 WSW 14 16 1020.5 - - - - - - - - -
28/10:50pm 13.3 WSW 13 16 1020.6 - - - - - - - - -
28/10:40pm 13.4 WSW 13 15 1020.7 - - - - - - - - -
28/10:30pm 13.4 WSW 11 13 1020.9 - - - - - - - - -
28/10:20pm 13.4 WSW 11 13 1020.9 - - - - - - - - -
28/10:10pm 13.4 WSW 10 13 1021.0 - - - - - - - - -
28/10:00pm 13.4 WSW 10 12 1021.0 - - - - - - - - -
28/09:50pm 13.3 WSW 9 11 1021.0 - - - - - - - - -
28/09:40pm 13.3 WSW 11 14 1021.1 - - - - - - - - -
28/09:30pm 13.3 WSW 11 14 1021.1 - - - - - - - - -
28/09:20pm 13.2 WSW 9 12 1021.1 - - - - - - - - -
28/09:10pm 13.2 WSW 8 11 1021.1 - - - - - - - - -
28/09:00pm 13.2 SW 8 11 1021.2 - - - - - - - - -
28/08:50pm 13.3 SW 8 10 1021.2 - - - - - - - - -
28/08:40pm 13.3 SW 7 10 1021.3 - - - - - - - - -
28/08:30pm 13.3 SW 7 10 1021.3 - - - - - - - - -
28/08:20pm 13.4 SW 7 9 1021.3 - - - - - - - - -
28/08:10pm 13.4 SW 7 9 1021.4 - - - - - - - - -
28/08:00pm 13.4 WSW 6 8 1021.4 - - - - - - - - -
28/07:50pm 13.4 WSW 5 7 1021.4 - - - - - - - - -
28/07:40pm 13.5 WSW 4 6 1021.4 - - - - - - - - -
28/07:30pm 13.5 WSW 5 6 1021.3 - - - - - - - - -
28/07:20pm 13.4 WSW 5 7 1021.4 - - - - - - - - -
28/07:10pm 13.5 WSW 6 8 1021.4 - - - - - - - - -
28/07:00pm 13.6 WSW 6 8 1021.4 - - - - - - - - -
28/06:50pm 13.6 WSW 6 7 1021.5 - - - - - - - - -
28/06:40pm 13.6 WSW 6 8 1021.5 - - - - - - - - -
28/06:30pm 13.5 W 6 8 1021.5 - - - - - - - - -
28/06:20pm 13.5 W 6 8 1021.5 - - - - - - - - -
28/06:10pm 13.5 W 6 9 1021.6 - - - - - - - - -
28/06:00pm 13.5 W 5 7 1021.6 - - - - - - - - -
28/05:50pm 13.5 W 6 7 1021.6 - - - - - - - - -
28/05:40pm 13.5 W 5 8 1021.5 - - - - - - - - -
28/05:30pm 13.4 W 5 7 1021.5 - - - - - - - - -
28/05:20pm 13.4 W 4 6 1021.4 - - - - - - - - -
28/05:10pm 13.4 W 3 5 1021.2 - - - - - - - - -
28/05:00pm 13.4 W 3 5 1021.2 - - - - - - - - -
28/04:50pm 13.4 W 3 5 1021.1 - - - - - - - - -
28/04:40pm 13.4 W 4 7 1021.1 - - - - - - - - -
28/04:30pm 13.3 W 4 6 1021.1 - - - - - - - - -
28/04:20pm 13.4 W 4 6 1021.1 - - - - - - - - -
28/04:10pm 13.5 W 5 6 1021.1 - - - - - - - - -
28/04:00pm 13.5 W 6 8 1021.1 - - - - - - - - -
28/03:50pm 13.4 W 5 8 1021.1 - - - - - - - - -
28/03:40pm 13.5 W 5 7 1021.1 - - - - - - - - -
28/03:30pm 13.5 W 5 8 1021.1 - - - - - - - - -
28/03:20pm 13.4 W 5 6 1021.1 - - - - - - - - -
28/03:10pm 13.4 W 5 7 1021.1 - - - - - - - - -
28/03:00pm 13.5 W 5 8 1021.1 - - - - - - - - -
28/02:50pm 13.6 W 6 8 1021.2 - - - - - - - - -
28/02:40pm 13.7 W 5 8 1021.1 - - - - - - - - -
28/02:30pm 13.8 W 5 8 1021.1 - - - - - - - - -
28/02:20pm 13.9 W 4 7 1021.1 - - - - - - - - -
28/02:10pm 13.9 WSW 4 9 1021.0 - - - - - - - - -
28/02:00pm 13.9 WSW 5 7 1021.0 - - - - - - - - -
28/01:50pm 14.0 W 4 6 1021.0 - - - - - - - - -
28/01:40pm 14.0 WSW 4 7 1021.1 - - - - - - - - -
28/01:30pm 14.2 WSW 4 6 1021.1 - - - - - - - - -
28/01:20pm 14.4 WSW 5 7 1021.2 - - - - - - - - -
28/01:10pm 14.4 WSW 4 8 1021.2 - - - - - - - - -
28/01:00pm 14.4 WSW 4 6 1021.3 - - - - - - - - -
28/12:50pm 14.5 WSW 3 4 1021.3 - - - - - - - - -
28/12:40pm 14.3 WSW 3 5 1021.4 - - - - - - - - -
28/12:30pm 14.2 WSW 3 5 1021.5 - - - - - - - - -
28/12:20pm 14.1 WSW 3 7 1021.6 - - - - - - - - -
28/12:10pm 14.2 WSW 2 4 1021.7 - - - - - - - - -
28/12:00pm 14.0 WSW 2 4 1021.8 - - - - - - - - -
28/11:50am 14.0 WSW 2 4 1021.9 - - - - - - - - -
28/11:40am 13.9 WSW 1 2 1022.0 - - - - - - - - -
28/11:30am 13.8 WSW 2 4 1022.1 - - - - - - - - -
28/11:20am 13.7 WSW 2 3 1022.2 - - - - - - - - -
28/11:10am 13.7 WSW 3 5 1022.4 - - - - - - - - -
28/11:00am 13.6 WSW 2 3 1022.5 - - - - - - - - -
28/10:50am 13.6 WSW 2 4 1022.6 - - - - - - - - -
28/10:40am 13.5 WSW 4 6 1022.8 - - - - - - - - -
28/10:30am 13.4 WSW 4 7 1022.9 - - - - - - - - -
28/10:20am 13.4 W 5 7 1023.0 - - - - - - - - -
28/10:10am 13.4 WSW 5 8 1023.1 - - - - - - - - -
28/10:00am 13.4 WSW 5 7 1023.2 - - - - - - - - -
28/09:50am 13.4 WSW 5 7 1023.2 - - - - - - - - -
28/09:40am 13.4 WSW 5 7 1023.3 - - - - - - - - -
28/09:30am 13.3 WSW 5 7 1023.3 - - - - - - - - -
28/09:10am 13.2 WSW 4 8 1023.3 - - - - - - - - -
28/09:00am 13.2 WSW 3 6 1023.2 - - - - - - - - -
28/08:50am 13.3 WSW 2 4 1023.1 - - - - - - - - -
28/08:40am 13.3 WSW 2 4 1023.0 - - - - - - - - -
28/08:30am 13.2 WSW 2 6 1023.1 - - - - - - - - -
28/08:20am 13.2 W 2 4 1023.2 - - - - - - - - -
28/08:10am 13.2 WSW 2 5 1023.1 - - - - - - - - -
28/08:00am 13.1 WSW 2 4 1023.1 - - - - - - - - -
28/07:50am 13.1 WSW 3 5 1023.1 - - - - - - - - -
28/07:40am 13.0 WSW 3 6 1023.1 - - - - - - - - -
28/07:30am 13.0 WSW 4 7 1023.1 - - - - - - - - -
28/07:20am 12.9 WSW 3 6 1023.0 - - - - - - - - -
28/07:10am 12.8 SW 4 6 1022.9 - - - - - - - - -
28/07:00am 12.8 WSW 4 6 1022.8 - - - - - - - - -
28/06:50am 12.8 WSW 4 6 1022.8 - - - - - - - - -
28/06:40am 12.7 WSW 4 7 1022.8 - - - - - - - - -
28/06:30am 12.7 WSW 4 5 1022.8 - - - - - - - - -
28/06:20am 12.7 SW 4 6 1022.8 - - - - - - - - -
28/06:10am 12.8 SW 4 6 1022.8 - - - - - - - - -
28/06:00am 13.0 SW 4 7 1022.7 - - - - - - - - -
28/05:50am 13.0 SW 4 6 1022.7 - - - - - - - - -
28/05:40am 12.8 WSW 4 6 1022.6 - - - - - - - - -
28/05:30am 12.8 WSW 3 5 1022.5 - - - - - - - - -
28/05:20am 12.7 WSW 2 5 1022.4 - - - - - - - - -
28/05:10am 12.7 WSW 2 4 1022.3 - - - - - - - - -
28/05:00am 12.7 SW 2 4 1022.3 - - - - - - - - -
28/04:50am 12.6 SW 1 3 1022.3 - - - - - - - - -
28/04:40am 12.6 SW 2 3 1022.2 - - - - - - - - -
28/04:30am 12.6 SW 2 3 1022.2 - - - - - - - - -
28/04:20am 12.6 WSW 2 4 1022.2 - - - - - - - - -
28/04:10am 12.6 WSW 2 4 1022.2 - - - - - - - - -
28/04:00am 12.5 WSW 2 4 1022.2 - - - - - - - - -
28/03:50am 12.6 SW 3 6 1022.1 - - - - - - - - -
28/03:40am 12.6 WSW 2 4 1022.3 - - - - - - - - -
28/03:30am 12.6 WSW 2 4 1022.3 - - - - - - - - -
28/03:20am 12.5 WSW 2 4 1022.2 - - - - - - - - -
28/03:10am 12.5 WSW 3 5 1022.3 - - - - - - - - -
28/03:00am 12.6 SW 2 5 1022.2 - - - - - - - - -
28/02:50am 12.5 SW 2 4 1022.2 - - - - - - - - -
28/02:40am 12.4 SW 1 2 1022.3 - - - - - - - - -
28/02:30am 12.5 CALM 0 1 1022.4 - - - - - - - - -
28/02:20am 12.5 CALM 0 2 1022.6 - - - - - - - - -
28/02:10am 12.5 CALM 0 2 1022.7 - - - - - - - - -
28/02:00am 12.5 CALM 0 0 1022.8 - - - - - - - - -
28/01:50am 12.4 CALM 0 0 1022.8 - - - - - - - - -
28/01:40am 12.4 CALM 0 0 1022.9 - - - - - - - - -
28/01:30am 12.4 CALM 0 0 1023.0 - - - - - - - - -
28/01:20am 12.5 CALM 0 1 1022.9 - - - - - - - - -
28/01:10am 12.5 CALM 0 0 1022.9 - - - - - - - - -
28/01:00am 12.5 CALM 0 1 1022.8 - - - - - - - - -
28/12:50am 12.5 CALM 0 2 1022.8 - - - - - - - - -
28/12:40am 12.5 CALM 0 2 1022.9 - - - - - - - - -
28/12:30am 12.4 CALM 0 1 1022.9 - - - - - - - - -
28/12:20am 12.3 CALM 0 1 1022.9 - - - - - - - - -
28/12:10am 12.2 CALM 0 1 1022.9 - - - - - - - - -
28/12:00am 12.3 CALM 0 0 1022.9 - - - - - - - - -
 
Date/Time
EST
Temp
°C
Wind Pressure Rain since
9am
mm
Weather Cloud Vis
km
Sea
Height
m
Swell
Dir  Spd
kts
Gust
kts
hPa Trend Height
m
Period
s
Dir
27/11:50pm 12.3 CALM 0 0 1023.0 - - - - - - - - -
27/11:40pm 12.3 CALM 0 0 1023.1 - - - - - - - - -
27/11:30pm 12.2 CALM 0 1 1023.2 - - - - - - - - -
27/11:20pm 12.3 CALM 0 0 1023.2 - - - - - - - - -
27/11:10pm 12.3 CALM 0 0 1023.2 - - - - - - - - -
27/11:00pm 12.3 CALM 0 0 1023.3 - - - - - - - - -
27/10:50pm 12.3 CALM 0 0 1023.5 - - - - - - - - -
27/10:40pm 12.3 CALM 0 0 1023.5 - - - - - - - - -
27/10:30pm 12.2 CALM 0 0 1023.6 - - - - - - - - -
27/10:20pm 12.3 CALM 0 0 1023.6 - - - - - - - - -
27/10:10pm 12.3 CALM 0 1 1023.6 - - - - - - - - -
27/10:00pm 12.3 CALM 0 0 1023.6 - - - - - - - - -
27/09:50pm 12.4 CALM 0 0 1023.7 - - - - - - - - -
27/09:40pm 12.4 CALM 0 0 1023.8 - - - - - - - - -
27/09:30pm 12.3 CALM 0 0 1023.8 - - - - - - - - -
27/09:20pm 12.3 CALM 0 1 1023.8 - - - - - - - - -
27/09:10pm 12.3 CALM 0 2 1023.9 - - - - - - - - -
27/09:00pm 12.1 CALM 0 1 1023.9 - - - - - - - - -
27/08:50pm 12.1 CALM 0 0 1023.9 - - - - - - - - -
27/08:40pm 12.1 CALM 0 0 1023.9 - - - - - - - - -
27/08:30pm 12.1 CALM 0 0 1023.9 - - - - - - - - -
27/08:20pm 12.1 CALM 0 0 1023.9 - - - - - - - - -
27/08:00pm 11.9 CALM 0 0 1024.0 - - - - - - - - -
27/07:50pm 11.8 CALM 0 0 1024.0 - - - - - - - - -
27/07:40pm 11.7 CALM 0 0 1024.0 - - - - - - - - -
27/07:30pm 11.7 CALM 0 0 1024.1 - - - - - - - - -
27/07:20pm 11.8 CALM 0 0 1024.1 - - - - - - - - -
27/07:10pm 11.9 CALM 0 0 1024.1 - - - - - - - - -
27/07:00pm 11.9 CALM 0 0 1024.1 - - - - - - - - -
27/06:50pm 12.0 CALM 0 0 1024.2 - - - - - - - - -
27/06:40pm 12.1 CALM 0 0 1024.2 - - - - - - - - -
27/06:30pm 12.1 CALM 0 0 1024.1 - - - - - - - - -
27/06:20pm 12.0 CALM 0 0 1024.2 - - - - - - - - -
27/06:10pm 12.1 CALM 0 0 1024.2 - - - - - - - - -
27/06:00pm 12.1 CALM 0 0 1024.3 - - - - - - - - -
27/05:50pm 12.1 CALM 0 1 1024.3 - - - - - - - - -
27/05:40pm 12.1 CALM 0 1 1024.2 - - - - - - - - -
27/05:30pm 12.1 CALM 0 2 1024.3 - - - - - - - - -
27/05:20pm 12.1 WSW 1 2 1024.2 - - - - - - - - -
27/05:10pm 12.1 CALM 0 2 1024.2 - - - - - - - - -
27/05:00pm 12.2 CALM 0 1 1024.2 - - - - - - - - -
27/04:50pm 12.2 CALM 0 1 1024.1 - - - - - - - - -
27/04:40pm 12.3 CALM 0 2 1024.0 - - - - - - - - -
27/04:30pm 12.3 CALM 0 2 1023.9 - - - - - - - - -
27/04:20pm 12.4 WSW 1 3 1023.9 - - - - - - - - -
27/04:10pm 12.4 CALM 0 2 1023.8 - - - - - - - - -
27/04:00pm 12.4 CALM 0 2 1023.7 - - - - - - - - -
27/03:50pm 12.5 CALM 0 1 1023.7 - - - - - - - - -
27/03:40pm 12.5 CALM 0 1 1023.7 - - - - - - - - -
27/03:30pm 12.6 CALM 0 2 1023.7 - - - - - - - - -
27/03:20pm 12.7 CALM 0 3 1023.7 - - - - - - - - -
27/03:10pm 12.8 CALM 0 1 1023.7 - - - - - - - - -
27/03:00pm 13.0 CALM 0 1 1023.6 - - - - - - - - -
27/02:50pm 13.1 CALM 0 1 1023.5 - - - - - - - - -
27/02:40pm 13.1 CALM 0 0 1023.4 - - - - - - - - -
27/02:30pm 13.2 CALM 0 0 1023.4 - - - - - - - - -
27/02:20pm 13.2 CALM 0 0 1023.3 - - - - - - - - -
27/02:10pm 13.2 CALM 0 1 1023.3 - - - - - - - - -
27/02:00pm 13.1 CALM 0 0 1023.4 - - - - - - - - -
27/01:50pm 13.1 CALM 0 1 1023.4 - - - - - - - - -
27/01:40pm 13.0 CALM 0 1 1023.5 - - - - - - - - -
27/01:30pm 13.0 CALM 0 1 1023.5 - - - - - - - - -
27/01:20pm 13.1 CALM 0 1 1023.6 - - - - - - - - -
27/01:10pm 13.2 CALM 0 2 1023.7 - - - - - - - - -
27/01:00pm 13.3 W 1 2 1023.8 - - - - - - - - -
27/12:50pm 13.4 W 1 3 1023.9 - - - - - - - - -
27/12:40pm 13.6 CALM 0 3 1023.9 - - - - - - - - -
27/12:30pm 13.5 CALM 0 1 1023.9 - - - - - - - - -
27/12:20pm 13.5 CALM 0 2 1023.9 - - - - - - - - -
27/12:10pm 13.6 WNW 1 3 1024.0 - - - - - - - - -
27/12:00pm 13.8 CALM 0 2 1024.1 - - - - - - - - -
27/11:50am 13.8 CALM 0 2 1024.1 - - - - - - - - -
27/11:40am 13.9 CALM 0 1 1024.3 - - - - - - - - -
27/11:30am 13.9 CALM 0 2 1024.5 - - - - - - - - -
27/11:20am 14.1 CALM 0 3 1024.7 - - - - - - - - -
27/11:10am 14.0 W 1 3 1024.8 - - - - - - - - -
27/11:00am 13.8 W 1 3 1024.9 - - - - - - - - -
27/10:50am 14.0 WNW 1 3 1025.0 - - - - - - - - -
27/10:40am 14.2 W 1 3 1025.1 - - - - - - - - -
27/10:30am 14.1 CALM 0 2 1025.2 - - - - - - - - -
27/10:20am 14.3 CALM 0 2 1025.4 - - - - - - - - -
27/10:10am 14.5 W 1 3 1025.5 - - - - - - - - -
27/10:00am 13.9 CALM 0 3 1025.6 - - - - - - - - -
27/09:50am 13.8 W 1 4 1025.8 - - - - - - - - -
27/09:40am 13.8 W 1 4 1025.8 - - - - - - - - -
27/09:30am 13.6 W 1 4 1025.9 - - - - - - - - -
27/09:20am 13.6 W 1 3 1025.9 - - - - - - - - -
27/09:10am 13.6 W 2 4 1025.9 - - - - - - - - -
27/09:00am 13.4 W 2 3 1025.9 - - - - - - - - -
27/08:50am 13.2 W 1 4 1025.9 - - - - - - - - -
27/08:40am 13.3 W 2 3 1025.8 - - - - - - - - -
27/08:30am 13.1 W 2 4 1025.8 - - - - - - - - -
27/08:20am 13.0 W 3 5 1025.8 - - - - - - - - -
27/08:10am 13.0 W 2 4 1025.8 - - - - - - - - -
27/08:00am 13.0 W 3 7 1025.8 - - - - - - - - -
27/07:50am 13.1 W 4 7 1025.8 - - - - - - - - -
27/07:40am 12.4 W 3 6 1025.7 - - - - - - - - -
27/07:30am 12.1 W 2 5 1025.6 - - - - - - - - -
27/07:20am 11.9 W 3 5 1025.6 - - - - - - - - -
27/07:10am 11.7 WSW 3 6 1025.7 - - - - - - - - -
27/07:00am 11.7 W 4 6 1025.7 - - - - - - - - -
27/06:50am 11.6 W 5 7 1025.6 - - - - - - - - -
27/06:40am 11.6 W 5 8 1025.6 - - - - - - - - -
27/06:30am 11.7 W 5 8 1025.6 - - - - - - - - -
27/06:20am 11.7 W 6 8 1025.5 - - - - - - - - -
27/06:10am 11.6 W 6 8 1025.4 - - - - - - - - -
27/06:00am 11.6 W 6 9 1025.4 - - - - - - - - -
27/05:50am 11.6 W 5 8 1025.5 - - - - - - - - -
27/05:40am 11.6 W 6 8 1025.5 - - - - - - - - -
27/05:30am 11.7 W 7 10 1025.5 - - - - - - - - -
27/05:20am 11.8 W 7 10 1025.4 - - - - - - - - -
27/05:10am 11.8 W 7 10 1025.4 - - - - - - - - -
27/05:00am 11.9 W 7 9 1025.4 - - - - - - - - -
27/04:40am 11.9 W 6 9 1025.2 - - - - - - - - -
27/04:30am 11.9 W 6 8 1025.2 - - - - - - - - -
27/04:20am 12.1 W 7 10 1025.2 - - - - - - - - -
27/04:10am 12.1 W 7 10 1025.2 - - - - - - - - -
27/04:00am 12.1 W 7 10 1025.1 - - - - - - - - -
27/03:50am 12.1 W 6 8 1025.0 - - - - - - - - -
27/03:40am 12.2 W 6 9 1025.1 - - - - - - - - -
27/03:30am 12.2 W 5 8 1025.1 - - - - - - - - -
27/03:20am 12.2 W 5 9 1025.1 - - - - - - - - -
27/03:10am 12.3 WSW 5 7 1025.1 - - - - - - - - -
27/03:00am 12.3 WSW 5 8 1025.1 - - - - - - - - -
27/02:50am 12.3 W 5 7 1025.0 - - - - - - - - -
27/02:40am 12.3 W 3 6 1025.1 - - - - - - - - -
27/02:30am 12.3 W 2 5 1025.1 - - - - - - - - -
27/02:20am 12.3 WNW 3 7 1025.0 - - - - - - - - -
27/02:10am 12.3 WSW 3 6 1025.0 - - - - - - - - -
27/02:00am 12.2 WSW 4 6 1024.9 - - - - - - - - -
27/01:50am 12.3 WSW 6 8 1025.0 - - - - - - - - -
27/01:40am 12.2 SW 3 6 1025.0 - - - - - - - - -
27/01:30am 12.2 WNW 4 6 1025.0 - - - - - - - - -
27/01:20am 12.4 W 7 11 1024.9 - - - - - - - - -
27/01:10am 12.4 SW 5 10 1024.9 - - - - - - - - -
27/01:00am 12.5 SW 5 9 1024.9 - - - - - - - - -
27/12:50am 12.4 SW 4 7 1024.8 - - - - - - - - -
27/12:40am 12.2 SW 3 5 1024.7 - - - - - - - - -
27/12:30am 12.1 SW 4 7 1024.7 - - - - - - - - -
27/12:20am 12.2 SW 5 7 1024.7 - - - - - - - - -
27/12:10am 12.3 SW 6 8 1024.6 - - - - - - - - -
27/12:00am 12.3 SW 4 8 1024.6 - - - - - - - - -
 
Date/Time
EST
Temp
°C
Wind Pressure Rain since
9am
mm
Weather Cloud Vis
km
Sea
Height
m
Swell
Dir  Spd
kts
Gust
kts
hPa Trend Height
m
Period
s
Dir
26/11:50pm 12.2 SW 4 6 1024.8 - - - - - - - - -
26/11:40pm 12.2 SW 6 8 1024.8 - - - - - - - - -
26/11:30pm 12.2 SW 7 11 1024.8 - - - - - - - - -
26/11:20pm 12.2 SW 5 7 1024.9 - - - - - - - - -
26/11:10pm 12.0 SW 6 9 1024.9 - - - - - - - - -
26/11:00pm 11.9 SW 7 10 1024.9 - - - - - - - - -
26/10:50pm 12.0 SW 8 10 1025.0 - - - - - - - - -
26/10:40pm 12.0 SW 6 10 1025.2 - - - - - - - - -
26/10:30pm 12.0 SW 8 9 1025.1 - - - - - - - - -
26/10:20pm 12.0 SW 7 9 1025.1 - - - - - - - - -
26/10:10pm 12.0 SW 9 13 1025.2 - - - - - - - - -
26/10:00pm 12.0 SW 9 12 1025.2 - - - - - - - - -
26/09:50pm 12.0 SW 8 10 1025.2 - - - - - - - - -
26/09:40pm 12.0 SW 8 12 1025.1 - - - - - - - - -
26/09:30pm 12.0 SW 6 8 1025.1 - - - - - - - - -
26/09:20pm 12.0 WSW 2 5 1025.2 - - - - - - - - -
26/09:10pm 12.0 SW 8 12 1025.1 - - - - - - - - -
26/09:00pm 12.0 SW 10 14 1025.0 - - - - - - - - -
26/08:50pm 12.0 SW 8 11 1025.0 - - - - - - - - -
26/08:40pm 12.0 SW 7 10 1025.0 - - - - - - - - -
26/08:30pm 11.9 SW 7 10 1025.0 - - - - - - - - -
26/08:20pm 11.7 SW 7 11 1024.9 - - - - - - - - -
26/08:10pm 11.7 W 7 12 1025.0 - - - - - - - - -
26/08:00pm 11.9 WSW 13 17 1024.8 - - - - - - - - -
26/07:50pm 11.9 WSW 13 17 1024.7 - - - - - - - - -
26/07:40pm 11.9 SW 9 11 1024.8 - - - - - - - - -
26/07:30pm 12.1 SW 8 11 1024.7 - - - - - - - - -
26/07:20pm 12.1 WSW 7 11 1024.6 - - - - - - - - -
26/07:10pm 12.0 SW 6 9 1024.6 - - - - - - - - -
26/07:00pm 12.0 SW 8 11 1024.4 - - - - - - - - -
26/06:50pm 11.9 SW 10 13 1024.3 - - - - - - - - -
26/06:40pm 11.9 SW 10 13 1024.2 - - - - - - - - -
26/06:30pm 11.9 SW 11 14 1024.1 - - - - - - - - -
26/06:20pm 11.9 SW 13 15 1024.0 - - - - - - - - -
26/06:10pm 11.9 SW 11 14 1024.0 - - - - - - - - -
26/06:00pm 11.8 SW 12 15 1023.9 - - - - - - - - -
26/05:50pm 11.9 SW 11 15 1023.9 - - - - - - - - -
26/05:40pm 11.9 SSW 10 14 1024.1 - - - - - - - - -
26/05:30pm 12.1 SW 12 14 1023.8 - - - - - - - - -
26/05:20pm 12.1 SW 9 12 1023.6 - - - - - - - - -
26/05:10pm 12.0 SW 9 12 1023.4 - - - - - - - - -
26/05:00pm 11.8 SW 9 12 1023.5 - - - - - - - - -
26/04:50pm 11.9 SSW 12 15 1023.6 - - - - - - - - -
26/04:40pm 12.1 SW 16 19 1023.5 - - - - - - - - -
26/04:30pm 12.0 SSW 10 20 1023.4 - - - - - - - - -
26/04:20pm 12.1 SW 11 14 1023.1 - - - - - - - - -
26/04:10pm 12.2 SW 12 16 1023.0 - - - - - - - - -
26/04:00pm 12.2 SSW 16 18 1023.2 - - - - - - - - -
26/03:50pm 12.3 SW 10 14 1022.8 - - - - - - - - -
26/03:40pm 12.5 WSW 12 16 1022.4 - - - - - - - - -
26/03:30pm 12.3 SW 12 16 1022.4 - - - - - - - - -
26/03:20pm 12.3 SW 9 13 1022.5 - - - - - - - - -
26/03:10pm 12.3 SW 11 14 1022.4 - - - - - - - - -
26/03:00pm 12.2 SW 11 14 1022.4 - - - - - - - - -
26/02:50pm 12.0 SSW 7 12 1022.6 - - - - - - - - -
26/02:40pm 11.8 SW 6 11 1022.4 - - - - - - - - -
26/02:30pm 12.1 SW 15 19 1022.4 - - - - - - - - -
26/02:20pm 12.6 SW 16 19 1022.5 - - - - - - - - -
26/02:10pm 12.9 SW 14 21 1022.2 - - - - - - - - -
26/02:00pm 12.8 SW 14 17 1022.0 - - - - - - - - -
26/01:40pm 12.9 WSW 10 14 1021.7 - - - - - - - - -
26/01:30pm 12.9 SW 11 16 1021.7 - - - - - - - - -
26/01:20pm 12.7 SSW 13 17 1021.9 - - - - - - - - -
26/01:10pm 13.1 SW 14 18 1021.7 - - - - - - - - -
26/01:00pm 13.0 SW 15 18 1021.6 - - - - - - - - -
26/12:50pm 13.0 SW 14 17 1021.7 - - - - - - - - -
26/12:40pm 13.0 SW 15 20 1021.6 - - - - - - - - -
26/12:30pm 13.2 SW 15 20 1021.5 - - - - - - - - -
26/12:20pm 13.2 SW 14 18 1021.4 - - - - - - - - -
26/12:10pm 13.3 SW 13 16 1021.5 - - - - - - - - -
26/12:00pm 13.5 SW 12 19 1021.4 - - - - - - - - -
26/11:50am 13.4 SW 12 17 1021.4 - - - - - - - - -
26/11:40am 13.2 SW 11 16 1021.3 - - - - - - - - -
26/11:30am 13.1 SW 14 21 1021.3 - - - - - - - - -
26/11:20am 13.3 SW 15 22 1021.4 - - - - - - - - -
26/11:10am 13.5 SSW 14 17 1021.8 - - - - - - - - -
26/11:00am 13.5 SW 15 19 1021.6 - - - - - - - - -
26/10:50am 13.3 SSW 15 18 1021.7 - - - - - - - - -
26/10:40am 13.6 SW 15 21 1021.7 - - - - - - - - -
26/10:30am 13.6 SW 14 19 1021.4 - - - - - - - - -
26/10:20am 13.3 SW 15 22 1021.2 - - - - - - - - -
26/10:10am 13.0 SW 15 24 1021.3 - - - - - - - - -
26/10:00am 13.2 SW 15 21 1021.3 - - - - - - - - -
26/09:50am 13.0 SW 13 18 1021.6 - - - - - - - - -
26/09:40am 13.9 SW 15 25 1021.6 - - - - - - - - -
26/09:30am 13.7 SW 13 16 1021.5 - - - - - - - - -
26/09:20am 13.1 SSW 14 17 1021.6 - - - - - - - - -
26/09:10am 12.9 SSW 15 18 1021.5 - - - - - - - - -
26/09:00am 12.8 SSW 18 22 1021.6 - - - - - - - - -
26/08:50am 12.7 SSW 17 21 1021.2 - - - - - - - - -
26/08:40am 12.6 SSW 16 22 1021.1 - - - - - - - - -
26/08:30am 12.4 SSW 15 18 1021.0 - - - - - - - - -
26/08:20am 12.2 SSW 17 23 1020.9 - - - - - - - - -
26/08:10am 12.3 SW 19 29 1020.3 - - - - - - - - -
26/08:00am 12.5 SW 20 27 1020.1 - - - - - - - - -
26/07:50am 12.3 SSW 20 24 1020.1 - - - - - - - - -
26/07:40am 12.2 SSW 20 25 1020.1 - - - - - - - - -
26/07:30am 11.9 SSW 21 27 1019.9 - - - - - - - - -
26/07:20am 11.8 SW 19 25 1019.5 - - - - - - - - -
26/07:10am 11.7 SW 18 22 1019.1 - - - - - - - - -
26/07:00am 11.7 SW 19 22 1018.8 - - - - - - - - -
26/06:50am 11.7 SW 20 25 1019.3 - - - - - - - - -
26/06:40am 11.7 SW 21 25 1018.9 - - - - - - - - -
26/06:30am 11.5 SW 21 25 1018.7 - - - - - - - - -
26/06:20am 11.4 SW 19 23 1018.6 - - - - - - - - -
26/06:10am 11.4 SSW 19 23 1018.8 - - - - - - - - -
26/06:00am 11.4 SSW 18 22 1018.8 - - - - - - - - -
26/05:50am 11.4 SSW 23 26 1018.9 - - - - - - - - -
26/05:40am 11.4 SW 22 27 1018.1 - - - - - - - - -
26/05:30am 11.2 SW 19 23 1017.6 - - - - - - - - -
26/05:20am 11.1 SW 21 26 1017.3 - - - - - - - - -
26/05:10am 11.1 SW 20 26 1017.4 - - - - - - - - -
26/05:00am 11.4 SW 20 26 1017.0 - - - - - - - - -
26/04:50am 11.7 WSW 19 26 1016.9 - - - - - - - - -
26/04:40am 12.0 SW 20 26 1016.7 - - - - - - - - -
26/04:30am 12.2 WSW 21 27 1016.4 - - - - - - - - -
26/04:20am 11.6 SW 20 26 1016.4 - - - - - - - - -
26/04:10am 11.2 SW 22 26 1016.3 - - - - - - - - -
26/04:00am 11.5 SW 21 27 1016.3 - - - - - - - - -
26/03:50am 11.7 WSW 22 27 1016.2 - - - - - - - - -
26/03:40am 11.6 SW 18 23 1016.1 - - - - - - - - -

Other Formats:

Comma delimited format used in spreadsheet applications
http://www.bom.gov.au/fwo/IDV60701/IDV60701.55039.axf

JavaScript Object Notation format (JSON) in row-major order
http://www.bom.gov.au/fwo/IDV60701/IDV60701.55039.json